OBJECT C, 44312

Orbit data source: Space-Track

You're viewing an uncataloged RSO

Recently launched and/or uncataloged RSOs may have evolving metadata. Metadata may include the following, but is not limited to: Owner, Manufacturer, Bus, Motor, and Mission.

OBJECT C, 44312 is a satellite owned by CAST (CN) in LEO that was launched on Wed, 05 Jun 2019 UTC via a CHANG ZHENG 11 launch vehicle from the Yellow Sea Launch Area, China (YSLA). Unknown objects in Earth's orbit typically refer to objects detected orbiting the Earth but have not yet been identified or cataloged. These objects could be anything from previously untracked satellites, spent rocket stages, debris from satellite collisions, or even natural meteoroids temporarily captured by Earth's gravity.

Loading next visibility...
Identifier
44312, 2019-032C
Orbit
LEO
Country
Flag of CNCN / PRC
Related business
Manufacturer
CAST?
Mission
Operational Commercial Weather
Bus & Motor
BF, Unknown motor
Mass
~10 kg wet, ~10 kg dry
Launch date (UTC)
2019-06-05 (7 years ago)
Launch vehicle
CHANG ZHENG 11
Launch site
Yellow Sea Launch Area, China (YSLA)
Object type
Unknown
Shape & HBR
Box, 0.2 m
Radar Cross Section
0.105 m², Medium (>0.1 m² and < 1m²)

Expand to show TLE details & history
Last TLE update: 6 hours ago

TLE from 6 hours ago
0 OBJECT C
1 44312U 19032C   26258.30470566  .00012366  00000-0  37280-3 0  9994
2 44312  44.9736 220.2884 0005871 116.4001 243.7487 15.34376233401679
Epoch: 2026-09-15T07:18Z
TLE epoch observation values (Epoch: 2026-09-15T07:18:46.569Z)
Latitude
-0.00002°
Longitude
116.32177°
Altitude
464.548 km
Speed
7.635 km/s
True Right ascension
14h 41m 09s
True Declination
0° 00' 00"
Sunlit
Object was in daylight at epoch
Visualization orbit readout
Latitude
Unknown
Longitude
Unknown
Altitude
Unknown
Speed
Unknown
Apparent Right ascension
Unknown
Apparent Declination
Unknown
Sunlit
N/A
Visualization observer readout
Local Sidereal Time
06:14:01
Azimuth
Unknown
Elevation
Unknown
Doppler factor
Unknown
Orbital elements
Apogee altitude
468.41 km
Perigee altitude
460.375 km
Semi-major axis
6,842.529 km
Eccentricity
0.00059
Inclination
44.9736°
RAAN
220.2884°
Arg. of periapsis
116.4001°
True anomaly
243.68838°
Mean anomaly
243.7487°
Eccentric anomaly
243.71854°
Mean motion
3.83458 °/min
Orbital period
93.88 mins
BSTAR
0.0003728
Loading maneuver chart data...
Computing Atmospheric mass density...
Loading historical data...
Loading historical data...
Loading historical data...
Loading historical data...
Loading historical data...
Loading historical data...
Loading historical data...

Documentation

Showing up to 5 results
|